Regional Weather Roundup
Issued by NWS

Home | Current Version | Previous Version | Text Only | Print | Product List | Glossary On
Versions: 1 2 3 4 5 6 7 8 9 10 11 12 13 14 15 16 17 18 19 20 21 22 23 24 25 26 27
000
ASUS42 KKEY 292310
RWRKEY

FLORIDA REGIONAL WEATHER ROUNDUP FOR THE FLORIDA KEYS
NATIONAL WEATHER SERVICE KEY WEST FLORIDA
700 PM EDT FRI APR 29 2016

...SOUTH FLORIDA AND THE KEYS...

CITY           SKY/WX    TMP DP  RH WIND       PRES   REMARKS
FORT MYERS     SUNNY     81  72  74 W9        29.91F
SW REGIONAL AP MOSUNNY   82  70  66 W8        29.92R
NAPLES         SUNNY     81  71  71 W6        29.92R
MIAMI          MOSUNNY   81  68  64 E12       29.94R
WEST KENDALL   SUNNY     81  67  62 SE13      29.94R
HOMESTEAD      SUNNY     79  69  70 E7        29.94R
MARATHON       SUNNY     81  70  69 SE8       29.92S
BOCA CHICA NAS PTSUNNY   81  69  67 E12       29.93R
KEY WEST INTL  MOSUNNY   80  71  74 E12       29.93R

...INTERNATIONAL WEATHER...

CITY           SKY/WX    TMP DP  RH WIND       PRES   REMARKS
NASSAU BAHAMAS PTCLDY    77  59  53 NE9       29.96S
CANCUN MEXICO  PTSUNNY   82  75  78 E14       29.84S
COZUMEL MEXICO MOSUNNY   81  73  78 E15       29.83S

ADJACENT COASTAL WATERS...

STATION/POSITION TIME  SKY/WX   TEMP    WIND        PRES    WAVE
                                AIR SEA DIR/SP/G            HT/PER
                 (UTC)          (F)     (DEG/KT/KT) (MB)    (FT/S)
PULASKI SHOAL LI 2300            79      80/  7/  7 1013.3R
SAND KEY         2250            79     120/ 11/ 13 1013.6R
SOMBRERO KEY     NOT AVBL
LONG KEY         2200            80 83  110/ 12/ 14 1013.6F
MOLASSES REEF    2300            78 80  100/ 11/ 13 1014.0S
FOWEY ROCKS      NOT AVBL

$$




USA.gov is the U.S. government's official web portal to all federal, state and local government web resources and services.